Skip Page Navigation
NASA JPL Caltech
NASA Logo - Jet Propulsion Laboratory + View the NASA Portal
+ Center for Near-Earth Object Studies
JPL Home Earth Solar System Stars & Galaxies Technology
JPL Solar System Dynamics
BODIES ORBITS EPHEMERIDES TOOLS PHYSICAL DATA DISCOVERY FAQ SITE MAP
IMPORTANT: The SSD Announcement email list is now available. Major changes are coming in the near future, including possible hostname and/or URL changes. To be notified of such changes, subscribe to this email list.

Please visit this page for more details.


JPL Small-Body Database Browser
Search: [ help ]  
413759 (2006 DZ119)
Classification: Main-belt Asteroid          SPK-ID: 2413759
Ephemeris | Orbit Diagram | Orbital Elements | Mission Design | Physical Parameters | Discovery Circumstances | Close-Approach Data ]

[ show orbit diagram ]
Orbital Elements at Epoch 2458600.5 (2019-Apr-27.0) TDB
Reference: JPL 12 (heliocentric ecliptic J2000)
 Element Value Uncertainty (1-sigma)   Units 
e .1224779577343805 9.5594e-08  
a 3.093262921962406 6.3365e-08 au
q 2.714406396544968 2.9314e-07 au
i 10.46257523765957 1.1222e-05 deg
node 9.063503308097314 4.3043e-05 deg
peri 124.7737833652223 5.8261e-05 deg
M 164.6527862125262 3.6583e-05 deg
tp 2457691.654075634393
(2016-Oct-30.15407563)
0.0001983 TDB
period 1987.118106518426
5.44
6.1059e-05
1.672e-07
d
yr
n .1811668862656311 5.5668e-09 deg/d
Q 3.472119447379844 7.1126e-08 au
  Orbit Determination Parameters
   # obs. used (total)      153  
   data-arc span      4882 days (13.37 yr)  
   first obs. used      2006-02-20  
   last obs. used      2019-07-04  
   planetary ephem.      DE431  
   SB-pert. ephem.      SB431-N16  
   condition code      0  
   norm. resid. RMS      .57166  
   source      ORB  
   producer      Otto Matic  
   solution date      2019-Sep-24 07:26:27  

Additional Information
 Earth MOID = 1.74437 au 
 Jupiter MOID = 1.59282 au 
 T_jup = 3.187 
[ show covariance matrix ]

Ephemeris | Orbit Diagram | Orbital Elements | Mission Design | Physical Parameters | Discovery Circumstances | Close-Approach Data ]

Physical Parameter Table
Parameter Symbol Value Units Sigma Reference Notes
absolute magnitude H 16.0   n/a MPO402690  

413759 (2006 DZ119)          Discovered 2006-Feb-20 by CSS at Catalina
Reference: Last Updated: 2014-11-10

[ show close-approach data ]
Alternate Designations
 2006 DZ119 = 2009 RQ9 
Ephemeris | Orbit Diagram | Orbital Elements | Mission Design | Physical Parameters | Discovery Circumstances | Close-Approach Data ]
ABOUT SSD CREDITS/AWARDS PRIVACY/COPYRIGHT GLOSSARY LINKS
FirstGov
(server date/time)  
NASA Home Page
Site Manager:   Ryan S. Park
Webmaster  Alan B. Chamberlin